Content
SEND FEEDBACK

Daily
Averages
Monthly
Summary
United States of America

ST. LOUIS, MISSOURI


Home > North America > United States > Missouri
Elevation: 535 feet     Latitude: 38 45N     Longitude: 090 22W

WEATHER
 
SELECT A DAY
Number of Records: 196,268;   Date Range: 1/1/95 - 7/20/14
 
SHARE

PRINT THIS DATA

[ ← Previous Day ]
WEATHER ALMANAC - APRIL 16, 2014
[ Next Day → ]
[ °C ]   °F
Weather ElementAverageHighLow
Temperature48.2 °F57.9 °F (2:54 pm)37.9 °F (3:54 am)
Dewpoint22.2 °F26.1 °F (11:54 pm)19 °F (4:54 pm)
Humidity37.5 %51 % (3:54 am)22 % (4:54 pm)
Barometer30.16 in30.25 in (8:54 am)30.04 in (5:54 pm)
Wind Speed9.8 mph17.3 mph (11:54 am)
Wind Gust26.5 mph (11:54 am)
Weather ElementAverage
Visibility10 mi
Wind DirectionSSE (143 °)

Weather ElementTotal
Precipitation---
Heating Degree Days17.1 (Base 65)
Averaged from 23 records on April 16, 2014
WEATHER CONDITIONS BREAKOUT
WIND DIRECTION BREAKOUT
WEATHER BY HOUR - APRIL 16, 2014
[ °C ]   °F
Local TimeTemperatureDewpointHumidityBarometerVisibilityWind DirectionWind SpeedGust SpeedPrecipitationEventsConditions
1:54 AM39.0 °F21.0 °F49 %30.22 in10.0 miSSE (160°)5.8 mphClear
2:54 AM39.0 °F21.0 °F49 %30.21 in10.0 miSSE (150°)4.6 mphClear
3:54 AM37.9 °F21.0 °F51 %30.22 in10.0 miVariable5.8 mphClear
4:54 AM37.9 °F21.0 °F51 %30.22 in10.0 miSouth (170°)6.9 mphClear
5:54 AM37.9 °F21.0 °F51 %30.22 in10.0 miSSE (150°)6.9 mphClear
6:54 AM37.9 °F21.0 °F51 %30.22 in10.0 miVariable6.9 mphScattered Clouds
7:54 AM39.9 °F21.0 °F47 %30.24 in10.0 miSSE (160°)12.7 mph20.7 mphScattered Clouds
8:54 AM43.0 °F21.9 °F43 %30.25 in10.0 miSouth (170°)13.8 mph20.7 mphMostly Cloudy
9:54 AM46.0 °F24.1 °F42 %30.25 in10.0 miSouth (180°)12.7 mph21.9 mphScattered Clouds
10:54 AM48.9 °F23.0 °F36 %30.24 in10.0 miSouth (170°)12.7 mph21.9 mphMostly Cloudy
11:54 AM51.1 °F23.0 °F33 %30.22 in10.0 miSouth (180°)17.3 mph26.5 mphMostly Cloudy
12:54 PM54.0 °F25.0 °F33 %30.18 in10.0 miSouth (170°)13.8 mph25.3 mphMostly Cloudy
1:54 PM57.0 °F24.1 °F28 %30.15 in10.0 miSSE (150°)16.1 mph20.7 mphMostly Cloudy
2:54 PM57.9 °F25.0 °F28 %30.12 in10.0 miSE (130°)13.8 mph24.2 mphScattered Clouds
3:54 PM57.0 °F19.9 °F24 %30.08 in10.0 miSouth (170°)10.4 mph23.0 mphScattered Clouds
4:54 PM57.9 °F19.0 °F22 %30.06 in10.0 miSouth (190°)11.5 mph24.2 mphScattered Clouds
5:54 PM57.9 °F19.9 °F23 %30.04 in10.0 miSouth (170°)10.4 mph23.0 mphScattered Clouds
6:54 PM55.9 °F21.0 °F26 %30.04 in10.0 miSouth (170°)12.7 mph20.7 mphPartly Cloudy
7:54 PM54.0 °F21.0 °F28 %30.06 in10.0 miSSE (150°)6.9 mph17.3 mphScattered Clouds
8:54 PM52.0 °F21.9 °F31 %30.09 in10.0 miSouth (170°)8.1 mphClear
9:54 PM50.0 °F24.1 °F36 %30.13 in10.0 miSouth (170°)4.6 mphClear
10:54 PM48.9 °F25.0 °F39 %30.13 in10.0 miSSE (160°)6.9 mphClear
11:54 PM48.0 °F26.1 °F42 %30.12 in10.0 miVariable4.6 mphClear
Hourly data recorded from KSUS, located miles away from St. Louis, Missouri







STORIES FROM OUR PARTNERS